{"data":{"norad_id":60121,"epoch":"2026-09-21T20:02:39.484608Z","epoch_age_seconds":70046,"freshness":"FRESH","line1":"1 60121U 24118J   26264.83517922 -.00054769  00000+0 -44538-3 0  9992","line2":"2 60121  53.1597 334.0775 0001488   5.2491 354.8542 15.69965744128809","mean_motion":15.69965744,"eccentricity":0.0001488,"inclination_deg":53.1597,"raan_deg":334.0775,"arg_perigee_deg":5.2491,"mean_anomaly_deg":354.8542,"bstar":-0.00044538,"rev_number":12880,"period_min":91.721746509649,"perigee_km":357.99252309049,"apogee_km":359.99749357617,"semimajor_km":6737.1320083333,"source":"CELESTRAK","updated_at":"2026-09-22T09:00:49.156132Z"}}